Location: Kawakawa
(35.3830°S, 174.0670°E)
Time: 03:52:22
(UTC+13:00)

Altair - Pass Details

Date: 08 December 2019
Orbit: 1502 x 1682 km, 47.2° (Epoch: 28 January)

Event Time Altitude Azimuth Distance (km) Brightness Sun altitude
Rises 07:58:06 0° 6° (N) 4,709 10.0 21.3°
Reaches altitude 10° 08:02:57 10° 27° (NNE) 3,771 9.8 22.2°
Maximum altitude 08:07:49 15° 58° (ENE) 3,418 10.2 23.2°
Drops below altitude 10° 08:12:47 10° 89° (E) 3,862 11.4 24.2°
Sets 08:17:47 0° 110° (ESE) 4,891 11.5 25.2°
